This demonstration page uses our WeatherBlox Daily Observations layout. Learn more.

Left ArrowRight Arrow

Hourly Observations for May 7, 2018

Temp ( °F °C ) Dew Point ( °F °C ) Humidity (%) Winds ( mph kmh ) Pressure ( in mb ) Visibility ( mi km ) Precip ( " mm )
12:53 am 00:53 Mostly Cloudy 66 18.9 43 6.1 43 43 SW 9 15 29.85 1011 10 16 N/A
1:53 am 01:53 Partly Cloudy 65 18.3 42 5.6 43 43 SW 14 22 29.85 1011 10 16 N/A
2:53 am 02:53 Mostly Cloudy 65 18.3 43 6.1 45 45 SW 13 20 29.85 1011 10 16 N/A
3:53 am 03:53 Clear 64 17.8 42 5.6 45 45 SSW 21 33 29.84 1011 10 16 N/A
4:53 am 04:53 Clear 62 16.7 43 6.1 50 50 SW 12 19 29.86 1011 10 16 N/A
5:53 am 05:53 Sunny 59 15 45 7.2 60 60 SW 17 28 29.85 1011 10 16 N/A
6:53 am 06:53 Mostly Cloudy 60 15.6 46 7.8 60 60 SW 17 28 29.84 1011 10 16 N/A
7:53 am 07:53 Partly Cloudy 64 17.8 45 7.2 50 50 SW 22 35 29.85 1011 10 16 N/A
8:53 am 08:53 Cloudy 62 16.7 45 7.2 54 54 SW 21 33 29.90 1013 10 16 N/A
9:53 am 09:53 Mostly Cloudy 59 15 50 10 72 72 SW 21 33 29.92 1013 10 16 N/A
10:53 am 10:53 Cloudy 59 15 52 11.1 78 78 SW 17 28 29.93 1014 10 16 N/A
11:53 am 11:53 Mostly Cloudy 59 15 54 12.2 83 83 SSW 18 30 29.97 1015 10 16 0.02 0.51
12:53 pm 12:53 Sunny 64 17.8 53 11.7 68 68 WSW 23 37 29.96 1014 10 16 N/A
1:53 pm 13:53 Sunny 68 20 50 10 53 53 WSW 22 35 29.94 1014 10 16 N/A
2:53 pm 14:53 Sunny 71 21.7 51 10.6 49 49 WSW 18 30 29.93 1014 10 16 N/A
3:53 pm 15:53 Sunny 72 22.2 50 10 46 46 SW 18 30 29.92 1013 10 16 N/A
4:53 pm 16:53 Sunny 72 22.2 50 10 46 46 SSW 15 24 29.90 1013 10 16 N/A
5:53 pm 17:53 Sunny 71 21.7 52 11.1 51 51 SSW 18 30 29.92 1013 10 16 N/A
6:53 pm 18:53 Sunny 66 18.9 53 11.7 63 63 S 13 20 29.94 1014 10 16 N/A
7:53 pm 19:53 Mostly Sunny 64 17.8 47 8.3 54 54 NE 3 6 29.96 1015 10 16 N/A
8:53 pm 20:53 Clear 60 15.6 50 10 70 70 SSE 3 6 29.97 1015 10 16 N/A
9:53 pm 21:53 Mostly Cloudy 56 13.3 48 8.9 75 75 SSW 5 7 29.99 1016 10 16 N/A
10:53 pm 22:53 Clear 56 13.3 49 9.4 77 77 SE 6 9 30.01 1016 10 16 N/A
11:53 pm 23:53 Clear 51 10.6 46 7.8 83 83 W 3 6 30.02 1017 10 16 N/A

Powered by AerisWeather